Weather History for White Rock, BC

Change the Weather History Date:

Thursday, January 24, 2013

  Actual Average Record
Temperature  
Mean Temperature 42 °F -  
Max Temperature 45 °F - - ()
Min Temperature 38 °F - - ()
Degree Days  
Heating Degree Days 24    
Moisture  
Dew Point 39 °F    
Average Humidity 88    
Maximum Humidity 92    
Minimum Humidity 79    
Precipitation  
Precipitation 0.24 in - - ()
Sea Level Pressure  
Sea Level Pressure 30.14 in    
Wind  
Wind Speed 2 mph ()    
Max Wind Speed 6 mph    
Max Gust Speed -    
T = Trace of Precipitation, MM = Missing Value Source: Averaged Metar Reports

Daily Weather History Graph

Daily Weather History Graph

Search for Another Location

Airport:

Trip Planner

Search our weather history database for the weather conditions in past years. The results will help you decide how hot, cold, wet, or windy it might be!

Date:

Astronomy

Jan. 24, 2013 Rise Set
Actual Time 7:51 AM PST 4:56 PM PST
Civil Twilight 7:16 AM PST 5:30 PM PST
Nautical Twilight 6:37 AM PST 6:09 PM PST
Astronomical Twilight 6:00 AM PST 6:47 PM PST
Moon 3:00 PM PST (1/24) 5:56 AM PST (1/24)
Length of Visible Light 10h 14m
Length of Day
9h 04m
Waxing Gibbous, 95% of the Moon is Illuminated
Jan 24
Waxing Gibbous
Jan 26
Full
Feb 3
Last Quarter
Feb 9
New
Feb 17
First Quarter

Hourly Weather History & Observations

Time (PST) Temp. Windchill Dew Point Humidity Pressure Visibility Wind Dir Wind Speed Gust Speed Precip Events Conditions
12:00 AM 43.7 °F 42.1 °F 40.8 °F 90% 30.11 in - South 3.5 mph - N/A   Unknown
1:00 AM 42.4 °F - 39.7 °F 90% 30.14 in - WSW 1.2 mph - N/A   Unknown
2:00 AM 40.1 °F - 37.9 °F 92% 30.17 in - Calm Calm - N/A   Unknown
3:00 AM 39.9 °F - 37.8 °F 92% 30.18 in - SE 1.2 mph - N/A   Unknown
4:00 AM 41 °F - 38 °F 87% 30.19 in - SE 1.2 mph - -  
4:00 AM 40.6 °F - 38.5 °F 92% 30.19 in - SE 1.2 mph - N/A   Unknown
5:00 AM 41.4 °F - 38.7 °F 90% 30.19 in - SE 1.2 mph - N/A   Unknown
6:00 AM 40.8 °F - 38.3 °F 91% 30.21 in - SE 1.2 mph - N/A   Unknown
7:00 AM 39.6 °F - 37.2 °F 91% 30.21 in - East 1.2 mph - N/A   Unknown
8:00 AM 39.2 °F - 37.0 °F 92% 30.21 in - East 1.2 mph - N/A   Unknown
9:00 AM 39.7 °F - 37.6 °F 92% 30.20 in - East 2.3 mph - N/A   Unknown
10:00 AM 43 °F - 40 °F 84% 30.20 in - ENE 2.3 mph - -  
10:00 AM 42.8 °F - 39.7 °F 89% 30.20 in - ENE 2.3 mph - N/A   Unknown
11:00 AM 44.1 °F - 38.8 °F 82% 30.20 in - NE 1.2 mph - N/A   Unknown
12:00 PM 45.1 °F 43.7 °F 39.2 °F 80% 30.18 in - NE 3.5 mph - N/A   Unknown
1:00 PM 45.1 °F - 38.8 °F 79% 30.14 in - ENE 2.3 mph - N/A   Unknown
2:00 PM 44.4 °F - 38.8 °F 81% 30.11 in - NE 2.3 mph - N/A   Unknown
3:00 PM 44.4 °F - 39.0 °F 81% 30.10 in - NE 1.2 mph - N/A   Unknown
4:00 PM 44 °F - 40 °F 79% 30.11 in - North 2.3 mph - -  
4:00 PM 43.5 °F - 39.6 °F 86% 30.11 in - North 2.3 mph - 0.02 in   Unknown
5:00 PM 42.1 °F 40.2 °F 37.9 °F 85% 30.12 in - East 3.5 mph - 0.03 in   Unknown
6:00 PM 41.5 °F 38.6 °F 38.3 °F 88% 30.10 in - NE 4.6 mph - 0.05 in   Unknown
7:00 PM 41.0 °F 38.0 °F 38.1 °F 89% 30.09 in - NE 4.6 mph - 0.05 in   Unknown
8:00 PM 40.5 °F 37.3 °F 37.9 °F 91% 30.07 in - NNE 4.6 mph - 0.02 in   Unknown
9:00 PM 39.9 °F 35.8 °F 37.6 °F 91% 30.06 in - NNE 5.8 mph - 0.03 in   Unknown
10:00 PM 40 °F - 38 °F 88% 30.05 in - NE 5.8 mph - -  
10:00 PM 39.9 °F 35.8 °F 37.8 °F 92% 30.05 in - NE 5.8 mph - 0.04 in   Unknown
11:00 PM 39.9 °F 35.8 °F 37.8 °F 92% 30.05 in - NE 5.8 mph - 0.05 in   Unknown